カタログに戻る

COSMOS 44

運用中軍事LEO
NORAD 876·PAYLOAD·🇷🇺 Russia

打ち上げ Aug 28, 1964 から Baikonur Cosmodrome

Loading…

次のパス (今後24時間)

TLE

最新Source: Space-Track

元期: Sep 14, 2026, 12:07 UTC

1 00876U 64053A   26257.50512751  .00000126  00000-0  42173-4 0  9997
2 00876  65.0588  61.7468 0147972 231.8835 126.8852 14.65768301301767

AllMySatでCOSMOS 44をリアルタイム追跡

Download on the App Store